FENGYUN 1C DEB

Satellite information

Favourite Embed

Satellite Type and Status

DEBRISIN ORBIT

Key statistics

Satellite FENGYUN 1C DEB at a glance.

Uptime

9554

Days in orbit

Revolutions

≈ 14.3

Per day

Orbit

SSO

Sun Synchronous Orbit

Inclination

99.1

Latest

Satellite identification and parameters

Extended collection of information and parameters for FENGYUN 1C DEB.

Object identification

Identified? True

Debris? True

Object name: FENGYUN 1C DEB

International designator: 1999-025AED

Object number (NORAD): 30414

Object ID (CCSDS): 30414

Country: PEOPLES REPUBLIC OF CHINA (PRC)

Current information (Y/N): Y

RCS size: SMALL

Orbital parameters

Period: 100.57 minutes

Inclination: 99.0751 deg

SMA: 7163.739 km

Apoapsis: 826.854 km

Periapsis: 744.354 km

RAAN: 334.9703 deg

Eccentricy: 0.0057582

Argument of periapsis: 297.1047 deg

Mean anomaly: 62.4269 deg

Mean motion: 14.31835544 rev/day

Mean motion (dot): 0.00003192 rev/day2

B* drag term: 0.0011894 1/REarth

Two-line elements (TLE)

Creation date: July 4, 2025, 6:39 p.m.

Reference frame: TEME

Reference center: EARTH

Epoch: July 4, 2025, 9:04 a.m. UTC

TLE line 0: 0 FENGYUN 1C DEB

TLE line 1: 1 30414U 99025AED 25185.37784279 .00003192 00000-0 11894-2 0 9995

TLE line 2: 2 30414 99.0751 334.9703 0057582 297.1047 62.4269 14.31835544947761

Live tracking on map

Real-time ground track for satellite FENGYUN 1C DEB.

In-orbit conjunctions

A list of the most updated potential collisions computed for object FENGYUN 1C DEB.

Target Orbit TCA Probability of collision Miss distance Type
METEOR 2-9 LEO 2025-04-05 07:00:23 0.0005313992 359.0 (m) PAYLOAD
COSMOS 836 LEO 2024-12-01 22:25:34 0.0009564866 173.0 (m) PAYLOAD
IRIDIUM 33 DEB LEO 2024-08-25 14:13:52 0.000101868 206.0 (m) DEBRIS

Associated space launch

Chinese polar orbiting meteorological satellite

FENGYUN 1C DEB was lifted into orbit during the mission ‘Long March 4B | Feng Yun 1C’, on board a Long March 4B space rocket.

The launch took place on May 10, 1999, 1:33 a.m. from Launch Complex 7.

For more information about the launch, click the button.

Launch to space Long March 4B | Feng Yun 1C
Long March 4B | Feng Yun 1C

Agency: N/A

Status: Launch Successful

Launch date: May 10, 1999, 1:33 a.m. UTC

Rocket: Long March 4B

Launch pad: Launch Complex 7

Location: Taiyuan Satellite Launch Center, People's Republic of China

...

Latest news about this satellite

There are no fresh news available about this satellite. Check back as we update our databases every day.


Newsletter sign-up

Weekly statistics, charts and insights to help you stay on top of the space industry.